Regional Weather Roundup
Issued by NWS Huntsville, AL

Home | Current Version | Previous Version | Text Only | Print | Product List | Glossary On
Versions: 1 2 3 4 5 6 7 8 9 10 11 12 13 14 15 16 17 18 19 20 21 22 23 24 25 26 27 28 29 30 31 32 33 34 35 36 37 38 39 40 41 42 43 44 45 46 47 48 49 50
000
ASUS44 KHUN 242310
RWRHUN

WEATHER ROUNDUP FOR THE TENNESSEE VALLEY
NATIONAL WEATHER SERVICE HUNTSVILLE AL
500 PM CST TUE JAN 24 2017

ALZ001>004-250000-
NORTHWEST ALABAMA

CITY           SKY/WX    TMP DP  RH WIND       PRES   REMARKS
COURTLAND HCN    N/A     57 N/A N/A CALM        N/A
RUSSELLVILLE     N/A     57 N/A N/A MISG        N/A
SHOALS AIRPORT CLEAR     55  37  50 E5        29.87F
SHOALS TVA RES   N/A     57 N/A N/A MISG        N/A
$$

ALZ005>007-016-250000-
NORTH CENTRAL ALABAMA

CITY           SKY/WX    TMP DP  RH WIND       PRES   REMARKS
CULLMAN AG STN   N/A     57 N/A N/A CALM        N/A
DECATUR AP     CLEAR     55  38  52 CALM      29.89R
HUNTSVILLE AP  CLEAR     56  37  49 CALM      29.88S
MERIDIANVILLE  CLEAR     54  34  47 CALM      29.88S
REDSTONE ARSN  CLEAR     54  36  49 CALM      29.88S
VINEMONT AP    FAIR      55  33  42 SW3       29.91R
$$

ALZ008>010-250000-
NORTHEAST ALABAMA

CITY           SKY/WX    TMP DP  RH WIND       PRES   REMARKS
ALBERTVILLE    CLEAR     55  39  54 SW5       29.87S
FORT PAYNE     CLEAR     54  30  40 CALM      29.88S
SCOTTSBORO AP  CLEAR     54  37  54 S5        29.89S
SCOTTSBORO HCN   N/A     54 N/A N/A MISG        N/A
VALLEY HEAD      N/A     52 N/A N/A MISG        N/A
$$

TNZ076-096-097-250000-
SOUTHEASTERN MIDDLE TENNESSEE

CITY           SKY/WX    TMP DP  RH WIND       PRES   REMARKS
TULLAHOMA      CLEAR     52  34  50 SE5       29.88S
WINCHESTER     CLEAR     52  36  54 CALM      29.87S
$$

...SURROUNDING SITES...

CITY           SKY/WX    TMP DP  RH WIND       PRES   REMARKS
ATLANTA        CLEAR     58  35  42 NW7       29.87R
ANNISTON       CLEAR     59  37  44 SW6       29.89R
BIRMINGHAM     CLEAR     60  34  37 NW3       29.91S
CHATTANOOGA    CLEAR     53  36  52 E3        29.89R
CORINTH        FAIR      57  37  47 SE9G15    29.83S
DALTON         CLEAR     50  37  62 CALM      29.90R
GADSDEN        CLEAR     59  35  40 N3        29.89R
GOLDEN TRNGL   CLEAR     57  37  47 SE9       29.83F
HALEYVILLE     FAIR      57  37  47 S7        29.90S
JACKSON TN     CLEAR     58  34  40 SE6       29.81S
MEMPHIS        PTCLDY    61  36  39 SE12      29.77F
NASHVILLE      PTCLDY    51  35  54 E8        29.87S
OXFORD MS      FAIR      59  36  41 SE7       29.83S
ROME           CLEAR     58  36  43 SW3       29.87R
SAVANNAH       CLEAR     57  34  41 S5        29.83S
TUPELO         CLEAR     57  38  48 SE8       29.85S
TUSCALOOSA     CLEAR     60  37  42 S5        29.90R
$$

...GULF COAST WEATHER...

CITY           SKY/WX    TMP DP  RH WIND       PRES   REMARKS
GULFPORT       CLEAR     61  45  55 S5        29.92S
PASCAGOULA     CLEAR     59  46  62 VRB5      29.93R
MOBILE         PTCLDY    63  48  58 SW8       29.92R
GULF SHORES    CLEAR     58  49  74 SW6       29.94R
PENSACOLA      CLEAR     59  49  69 SW6       29.93R
DESTIN         CLEAR     64  51  62 W5        29.92R
PANAMA CITY    CLEAR     61  51  70 W7        29.92R
APPALACHICOLA  CLEAR     62  51  67 W9        29.91R
$$




USA.gov is the U.S. government's official web portal to all federal, state and local government web resources and services.